Regional Weather Roundup
Issued by NWS Spokane, WA

Home | Current Version | Previous Version | Text Only | Print | Product List | Glossary On
Versions: 1 2 3 4 5 6 7 8 9 10 11 12 13 14 15 16 17 18 19 20 21 22 23 24 25 26 27 28 29 30 31 32 33 34 35 36 37 38 39 40 41 42 43 44 45 46 47 48 49 50
000
NZUS01 KOTX 211725
RWROTX

Eastern Washington/Northern Idaho Roundup
National Weather Service, Spokane WA
900 AM PST TUE FEB 21 2017

Note: "fair" indicated few or no clouds below 12,000 feet with no
significant weather and/or obstructions to visibility.

...Northeast Washington and Northern Idaho Panhandle...

CITY           SKY/WX    TMP DP  RH WIND       PRES   REMARKS
Spokane Intl   SNOW      33  32  96 N6        29.67S VSB 1/2 WCI  28
Spokane Downto LGT SNOW  33  33 100 CALM      29.70R FOG
Coeur d Alene  LGT SNOW  34  32  93 N3        29.68R FOG
Deer Park      LGT SNOW  33  31  92 NW3       29.69R FOG
Sandpoint      MIX PCPN  32  32 100 CALM      29.69R
Bonners Ferry  FOG       32  32 100 CALM      29.68R VSB<1/4

...Southeast Washington and southern Idaho Panhandle...

CITY           SKY/WX    TMP DP  RH WIND       PRES   REMARKS
Walla Walla    LGT RAIN  36  36 100 SW7       29.72R FOG
Pullman/Moscow LGT RAIN  40  38  93 SW5       29.67R
Lewiston       CLOUDY    43  39  86 E5        29.69R
Lowell           N/A     36  34  92 NW3       29.74R
Grangeville    CLOUDY    41  36  81 SW20G29   29.66R

...Columbia Basin...

CITY           SKY/WX    TMP DP  RH WIND       PRES   REMARKS
Ephrata        LGT RAIN  36  30  79 N7        29.73R
Moses Lake     LGT RAIN  34  32  92 N7        29.74R WCI  28
Pasco          LGT RAIN  38  36  92 CALM      29.77R
Richland       MIX PCPN  40  38  95 NW5       29.78R
Hermiston      LGT RAIN  40  40 100 N6        29.74R FOG
Pendleton        N/A    N/A N/A N/A MISG      29.68R

...East Slopes Cascades...

CITY           SKY/WX    TMP DP  RH WIND       PRES   REMARKS
The Dalles     LGT RAIN  40  40 100 CALM      29.78R FOG
Yakima         LGT RAIN  38  36  92 W5        29.75R FOG
Ellensburg     LGT SNOW  35  32  88 CALM      29.73R FOG
Stampede Pass  LGT SNOW  30  32 100 VRB3      29.69R
Wenatchee      CLOUDY    33  33 100 NW7       29.75R WCI  27
Omak           PTSUNNY   36  32  85 N6        29.75R
Sunnyside        N/A     34  34  99 CALM      29.76R FOG

...Southern British Columbia...

CITY           SKY/WX    TMP DP  RH WIND       PRES   REMARKS
Penticton      PTSUNNY   37  32  81 CALM      29.76R
Castlegar      PTSUNNY   36  34  93 VRB2      29.72R
Cranbrook      PTSUNNY   28  28 100 VRB2      29.66F FOG
Osoyoos          N/A     37  36  93 CALM        N/A
Creston          N/A     32  32 100 W1          N/A

...Western Montana...

CITY           SKY/WX    TMP DP  RH WIND       PRES   REMARKS
Kalispell      LGT SNOW  33  32  96 CALM      29.64S VSB 3/4
Libby            N/A     34  32  93 CALM      29.66R
Missoula       CLOUDY    33  33 100 CALM      29.66S FOG

...Neighboring Cities...

CITY           SKY/WX    TMP DP  RH WIND       PRES   REMARKS
Seattle        LGT RAIN  43  41  93 N7        29.81R FOG
Portland       LGT RAIN  44  43  96 W5        29.84R FOG
Boise          MOSUNNY   52  31  44 SW21G31   29.89R
Great Falls    CLOUDY    40  33  76 CALM      29.60F
Calgary        LGT SNOW  28  25  86 VRB2      29.65R FOG



USA.gov is the U.S. government's official web portal to all federal, state and local government web resources and services.